Temperature
24 23 23 22 21 20 22 24 24 24 23 24 24 23 21 20 20 20 19 20 20 20 19 19 19 19 19 19 19 19 19 19 19 19 19 19 19 19 18 18 18 18 18 18 18 18 18 18 17
24 24 23 23 21 21 22 24 24 24 24 24 23 22 21 19 19 20 20 20 20 20 19 19 19 19 19 19 19 19 19 19 19 19 19 19 19 18 18 18 18 18 18 18 17 17 18 17 17
24 24 24 20 21 22 23 24 24 24 24 24 23 22 20 19 20 20 20 20 20 20 20 19 19 19 19 19 19 19 19 19 19 19 19 18 18 18 18 18 18 18 17 17 17 17 17 17 17
25 24 24 21 23 23 24 24 24 24 24 24 23 21 20 20 21 21 21 20 20 20 19 19 19 19 19 19 19 19 19 19 19 19 18 18 18 18 18 18 18 18 17 17 17 17 17 17 17
25 25 21 21 23 24 24 25 25 24 24 23 22 21 20 20 21 21 21 20 20 20 19 19 19 19 19 19 19 19 19 19 19 19 18 18 18 18 18 18 18 18 18 17 17 17 17 17 17
26 22 21 22 23 24 25 25 25 24 23 23 22 20 19 20 21 21 21 20 20 20 20 19 19 19 19 19 19 19 19 19 19 18 18 18 18 18 18 18 18 18 18 17 17 17 17 17 17
24 20 22 23 23 24 25 25 25 24 23 23 22 19 19 20 21 21 21 20 20 20 20 19 19 19 19 19 19 19 19 19 18 18 18 18 18 18 18 18 18 18 18 17 17 17 17 17 17
25 21 23 22 24 25 26 25 25 24 24 23 23 20 19 20 21 21 20 20 20 20 20 19 19 19 19 19 19 19 19 18 18 18 18 18 18 18 18 18 18 18 17 17 17 17 17 17 17
25 21 22 24 24 25 26 25 25 25 24 24 23 23 23 21 21 20 20 19 19 19 19 19 19 19 19 19 19 18 18 18 18 18 18 18 18 18 18 17 17 17 17 17 17 17 17 17 17
25 22 25 25 25 25 26 26 25 25 24 23 22 22 22 21 20 20 20 20 20 19 19 19 19 19 19 19 18 18 18 18 18 18 18 18 18 18 18 18 17 17 17 17 17 17 17 17 17
25 24 25 26 27 26 26 26 26 24 23 24 23 22 22 21 20 21 21 21 21 20 20 20 19 19 19 19 19 18 18 18 18 18 18 18 18 18 18 18 17 17 17 17 17 17 17 17 17
25 25 26 27 27 26 26 26 25 25 26 26 25 24 22 21 21 21 21 21 21 20 20 20 19 19 19 19 19 19 18 18 18 18 18 18 18 18 18 18 18 17 17 17 17 17 17 17 17
25 25 27 27 27 26 26 25 25 25 26 26 25 23 23 22 21 21 21 21 21 21 20 20 20 19 19 19 19 18 18 18 18 18 18 18 18 18 18 18 18 17 17 17 17 17 17 17 17
25 25 26 26 27 27 26 25 25 25 26 25 24 23 23 22 22 21 21 21 21 21 21 20 20 19 19 19 19 18 18 18 18 18 18 18 18 18 17 17 17 17 17 17 17 17 17 17 17
25 24 25 26 26 26 26 25 24 25 25 24 23 22 22 22 22 22 22 21 21 21 20 20 20 20 19 19 18 18 18 18 18 18 18 18 17 17 17 17 17 17 17 17 17 17 17 17 17
24 23 24 25 25 26 26 25 25 25 24 23 22 21 21 21 22 22 21 21 21 21 20 20 20 19 19 19 18 18 18 18 18 18 18 17 17 17 17 17 17 17 17 17 17 17 17 17 17
22 23 24 24 25 25 25 25 24 24 24 22 22 22 21 21 21 21 21 21 21 21 20 20 20 19 19 19 18 18 18 18 18 17 17 17 17 17 17 17 17 17 17 17 17 17 17 17 17
23 24 23 23 24 25 24 24 23 23 23 22 22 22 21 21 22 22 22 22 21 21 20 20 19 19 19 18 18 18 18 17 17 17 17 17 17 17 17 17 17 17 17 17 17 17 17 17 17
24 24 23 23 24 24 24 23 23 22 22 22 22 21 21 22 22 22 22 21 21 20 20 20 19 19 19 18 18 18 18 17 17 17 17 17 17 17 17 17 17 17 17 17 17 17 17 17 17
23 23 23 23 24 24 24 23 22 22 22 22 22 21 22 22 22 22 21 21 21 21 20 20 19 19 19 18 18 18 18 18 17 17 17 17 17 17 17 17 17 17 17 17 17 17 17 17 17
23 23 24 24 24 23 24 23 22 22 22 22 22 22 22 22 22 22 22 21 21 20 20 20 19 19 19 18 18 17 17 17 17 17 17 17 17 17 17 17 17 17 17 17 17 17 17 17 17
22 23 23 24 23 22 23 23 22 21 21 21 21 21 22 22 22 22 22 21 21 21 20 20 19 19 18 18 18 17 17 17 17 17 17 17 17 17 17 17 17 17 17 17 17 17 17 17 17
23 24 24 23 23 22 22 22 21 20 21 21 21 21 22 22 22 22 22 22 21 21 20 20 19 19 18 18 18 17 17 17 17 17 17 17 17 17 17 17 17 17 17 17 17 17 17 17 17
24 22 21 18 19 21 22 22 21 19 21 21 21 21 21 22 22 22 22 21 21 20 20 19 19 19 18 18 18 17 17 17 17 17 17 17 17 17 17 17 17 17 17 17 17 17 17 17 17
23 20 20 21 19 20 20 21 20 21 21 21 21 21 21 22 22 22 21 21 21 20 20 19 19 19 18 18 18 17 17 17 17 17 17 17 17 17 17 17 17 17 17 17 17 17 17 17 17
22 21 20 21 20 20 20 21 21 21 21 22 22 22 21 22 22 22 22 21 21 20 20 19 19 19 18 18 18 17 17 17 17 17 17 17 17 17 17 17 17 17 17 17 17 17 16 16 16
21 20 20 18 19 20 20 20 21 21 21 21 21 21 21 22 22 22 22 21 21 20 20 19 19 19 18 18 18 17 17 17 17 17 17 17 17 17 17 17 17 17 16 16 16 16 16 16 16
21 18 17 18 19 20 21 21 20 22 21 20 20 21 21 22 22 22 22 21 21 20 20 19 19 18 18 18 17 17 17 17 17 17 17 17 17 17 16 16 16 16 16 16 16 16 16 16 16
21 20 17 16 17 19 20 20 20 20 20 20 20 21 21 22 22 22 21 21 21 20 20 19 19 18 18 18 17 17 17 17 17 17 17 17 17 17 16 16 16 16 16 16 16 16 16 16 16
22 20 18 20 19 17 19 20 21 20 20 20 20 21 21 22 22 22 21 21 20 20 19 19 18 18 18 18 17 17 17 17 17 17 17 17 16 16 16 16 16 16 16 16 16 16 16 16 16
Wind_Speed
3 4 3 2 5 6 4 5 2 3 3 3 6 6 7 4 2 3 4 10 14 12 14 16 16 16 16 16 16 16 16 17 16 16 16 16 15 15 15 15 15 15 15 15 15 15 15 15 15
3 4 2 4 6 5 4 4 4 3 4 5 6 6 6 5 4 7 6 9 14 13 14 15 17 16 16 16 15 16 16 16 15 15 15 15 14 14 15 15 15 15 15 15 15 15 15 15 15
2 2 3 5 5 3 1 1 2 3 3 3 5 6 5 4 6 6 7 14 12 12 14 16 17 16 16 15 15 15 15 15 15 14 14 14 14 14 14 14 14 15 15 15 15 15 14 14 14
2 3 5 6 3 2 3 2 3 2 4 5 5 6 5 4 5 7 14 15 13 10 13 16 17 16 16 15 14 14 14 14 14 14 13 13 14 14 14 14 14 14 14 14 14 14 14 13 13
3 5 7 5 2 2 2 3 3 2 2 3 4 6 4 4 11 15 15 15 13 10 12 16 17 16 15 14 14 13 13 13 13 13 13 13 13 13 13 13 14 14 14 13 13 13 13 12 13
5 5 6 2 3 2 1 3 3 3 3 3 4 5 3 5 12 14 13 12 11 10 11 15 17 16 15 14 14 13 13 13 12 13 12 12 12 12 12 12 13 13 13 13 12 12 11 11 12
4 5 3 1 1 2 1 2 4 4 3 3 5 6 4 6 9 12 11 10 9 9 9 10 14 15 15 14 13 13 12 12 12 12 12 12 12 11 11 11 12 12 12 12 11 11 10 10 12
5 5 4 1 1 2 2 3 3 5 3 4 5 8 7 9 12 12 11 10 9 7 6 7 10 11 12 12 13 12 12 12 12 11 11 11 11 11 10 10 10 11 11 11 11 11 10 10 11
4 5 1 2 3 3 2 3 2 4 5 3 3 4 8 18 17 15 13 9 9 9 6 6 7 9 10 11 11 12 11 11 11 10 11 10 9 9 8 8 9 9 10 10 10 10 10 10 10
5 3 4 5 4 3 3 4 5 5 4 3 5 8 18 19 18 17 16 15 13 12 9 6 7 8 9 9 9 9 9 9 8 8 9 9 8 7 6 7 7 8 8 8 9 9 9 9 8
3 4 4 4 4 3 3 3 4 7 5 7 10 17 21 19 17 16 15 14 14 12 11 8 7 8 8 6 8 7 8 8 7 8 9 8 7 5 5 4 5 5 6 6 7 7 7 7 6
1 4 4 4 2 2 4 5 4 6 7 7 14 21 22 21 18 17 16 14 12 11 11 9 8 7 7 7 6 7 7 6 6 6 8 7 5 4 3 3 4 4 4 4 5 5 5 5 5
1 4 5 5 3 3 4 5 5 5 3 10 17 20 20 19 16 13 11 11 11 11 10 9 8 8 7 6 6 6 6 6 6 6 7 7 5 3 2 2 3 3 3 3 3 3 3 3 4
3 5 7 5 1 2 4 2 3 4 7 13 17 18 18 17 15 12 11 11 11 12 10 9 9 8 8 6 5 5 7 7 7 6 7 8 7 5 3 2 2 2 2 3 3 2 2 2 3
3 5 8 4 1 1 4 1 4 4 10 13 14 14 14 13 13 14 14 13 12 11 10 10 10 8 8 7 6 7 7 8 6 7 8 8 8 7 5 3 2 2 3 3 3 3 3 2 2
5 5 5 7 4 1 5 5 5 7 11 11 11 11 11 10 11 11 11 10 10 10 11 11 11 10 9 7 7 6 8 8 7 8 8 9 9 9 6 4 3 4 3 3 3 2 2 2 2
7 4 4 7 4 1 2 5 3 6 10 10 10 10 9 8 7 8 10 11 11 12 11 11 10 10 10 8 6 6 7 7 8 8 8 9 9 9 7 5 4 4 3 2 2 2 2 2 2
1 2 4 6 5 2 2 4 1 4 7 8 8 8 8 9 9 7 8 9 10 10 10 11 10 9 9 6 5 4 4 4 6 8 9 10 9 10 8 6 5 5 3 2 2 2 2 2 2
3 1 5 7 5 2 2 2 1 3 5 6 7 8 8 7 6 6 7 8 9 9 10 11 10 9 8 6 6 5 5 5 4 6 9 10 9 10 9 5 5 5 4 4 4 3 3 2 2
2 3 5 6 4 1 1 3 2 1 4 6 8 7 7 6 5 6 7 8 9 10 11 10 10 10 9 7 6 4 4 4 4 4 6 9 9 10 9 7 5 5 4 4 4 3 3 2 2
3 4 5 4 5 6 4 5 3 2 0 2 4 6 7 9 9 8 8 8 8 9 10 10 10 9 9 7 5 3 3 2 2 3 3 6 9 9 8 9 7 6 5 5 5 5 5 3 2
5 6 6 3 2 3 2 1 5 3 3 4 5 6 8 8 8 8 8 8 9 9 8 8 8 8 7 8 7 7 6 5 5 5 4 4 6 8 8 8 8 7 5 6 6 5 4 5 3
7 0 2 0 3 2 3 2 7 2 4 8 8 8 8 8 8 9 9 9 8 8 7 7 7 7 7 8 8 7 5 4 3 3 4 4 4 5 7 8 7 6 5 6 5 5 5 4 4
4 6 7 6 5 1 2 2 6 5 7 6 6 7 7 7 8 7 6 6 6 6 6 6 7 6 7 8 8 7 7 6 5 5 5 4 3 3 5 6 7 6 5 6 6 5 6 5 4
5 6 5 5 5 4 4 2 8 8 8 8 7 7 8 8 8 8 8 7 7 8 7 7 7 7 7 7 7 7 7 7 7 6 6 5 4 4 5 5 5 5 5 6 6 5 5 5 5
6 9 8 5 5 5 3 5 7 6 6 5 5 6 7 8 8 8 8 8 8 8 8 7 7 6 7 7 6 5 6 5 4 5 5 5 5 5 4 5 5 5 5 5 5 4 5 4 5
7 5 8 7 4 0 5 7 8 3 3 1 4 7 8 9 9 9 8 8 8 8 8 7 7 6 6 6 5 4 5 5 5 4 5 4 4 4 4 5 5 4 4 5 5 4 5 5 5
6 10 7 7 6 3 5 5 5 7 5 2 5 7 7 7 8 8 8 8 7 7 6 6 6 5 5 5 4 4 4 4 4 4 5 4 4 4 4 5 5 5 5 5 5 5 4 5 4
6 6 6 6 6 7 3 7 7 9 7 7 8 7 7 9 9 8 7 7 7 6 6 6 5 5 4 4 3 3 2 2 2 3 4 4 4 4 5 5 5 5 5 5 5 5 5 5 5
6 9 9 7 5 5 5 8 7 7 7 7 6 5 6 6 7 7 7 7 7 7 6 6 5 5 4 4 4 3 3 2 2 2 2 3 3 3 4 4 4 5 5 5 6 6 5 5 5
Wind_Direction
183 149 136 109 59 47 24 349 20 54 53 64 99 100 106 95 135 144 120 134 132 137 144 141 136 129 124 120 117 114 114 113 114 114 113 113 112 112 111 109 109 108 107 106 106 107 107 108 108
151 152 113 63 73 56 344 340 48 58 117 109 85 84 81 73 76 107 127 138 136 137 140 142 139 133 128 124 121 118 116 116 116 116 115 114 113 112 111 111 110 108 108 108 107 107 107 108 109
177 159 86 68 80 137 232 305 96 83 80 75 82 73 82 110 123 130 145 138 132 134 139 146 141 137 133 129 126 123 121 119 118 117 117 116 114 113 112 110 110 108 107 107 107 106 106 108 110
116 58 54 66 74 227 210 191 141 101 41 48 92 77 70 93 130 135 138 138 133 131 141 149 144 141 137 134 131 128 126 123 121 119 118 117 116 114 112 111 109 108 107 106 106 106 106 108 109
65 74 59 45 329 279 220 176 151 108 62 58 84 86 58 33 111 129 137 140 139 136 144 150 147 146 142 139 136 132 129 126 125 123 121 119 118 115 113 112 111 110 108 107 107 106 106 107 111
53 63 73 37 326 317 231 165 134 103 94 86 88 90 62 111 125 136 138 138 140 141 144 151 151 151 148 145 142 138 134 131 129 127 125 123 121 119 117 114 113 112 109 108 107 106 106 111 113
91 80 99 118 320 326 197 152 148 131 126 135 120 103 107 138 137 134 131 130 132 136 136 143 153 156 155 151 147 143 140 138 134 131 130 127 125 123 121 118 116 113 112 111 109 106 104 109 115
111 95 73 46 222 262 174 131 139 134 134 116 119 140 164 163 138 126 124 128 132 132 133 138 146 151 152 153 152 149 146 144 141 139 136 133 130 126 122 117 116 115 113 112 110 105 101 103 113
86 70 65 217 204 245 178 148 140 107 113 118 127 156 153 142 138 135 138 143 153 155 147 143 143 145 148 152 157 154 151 150 146 144 141 129 119 119 119 121 121 119 115 111 109 104 98 98 109
82 107 231 221 203 208 200 177 159 124 126 127 90 101 129 143 149 153 159 166 171 172 169 158 152 148 149 158 154 152 147 145 139 136 129 122 119 121 124 133 132 126 119 113 108 103 94 93 101
122 193 249 253 219 195 181 176 150 141 190 196 165 149 149 155 160 165 171 174 177 175 175 168 159 153 152 149 146 144 139 137 136 134 132 129 122 116 114 111 104 103 101 93 93 90 89 97 107
182 261 251 259 214 183 178 165 159 189 216 179 157 154 157 165 173 176 177 178 175 175 179 170 165 158 159 151 147 143 141 142 143 145 145 138 127 119 123 114 106 97 100 97 92 93 94 101 119
267 289 286 265 262 198 165 174 180 226 194 126 141 155 167 174 178 180 178 176 174 179 180 176 169 167 162 153 158 157 155 158 160 160 159 156 149 148 147 140 132 128 121 116 106 97 97 109 130
279 283 297 298 270 186 160 181 161 227 146 138 152 167 176 179 177 174 175 180 182 184 182 178 177 174 166 164 163 163 165 166 168 175 176 176 173 167 166 162 160 163 156 146 133 123 116 115 130
310 340 344 353 6 188 121 330 224 191 145 152 164 172 178 181 179 185 185 184 185 183 179 183 185 177 174 171 171 171 174 173 180 189 190 189 185 179 177 174 189 197 175 152 133 117 103 105 116
30 32 352 318 350 33 128 242 244 157 153 165 170 172 177 182 185 188 184 182 180 178 180 187 192 183 181 177 173 171 177 180 190 194 195 198 193 185 177 178 196 196 174 152 138 131 114 107 116
29 24 329 313 332 18 163 245 253 156 161 170 172 173 175 175 187 189 186 183 179 180 180 186 188 183 183 177 174 175 176 179 188 191 195 200 195 188 180 186 197 184 166 164 167 140 134 138 140
345 4 322 296 302 346 259 259 259 157 162 171 173 173 176 182 195 190 184 181 175 176 176 184 185 182 175 165 158 165 173 183 188 191 198 197 194 190 183 186 189 178 165 168 155 136 116 125 144
148 284 294 277 289 312 268 277 265 151 156 171 182 182 183 190 186 165 169 171 166 171 176 183 184 179 172 169 173 179 191 191 195 199 199 196 195 191 183 185 180 179 180 180 164 142 135 123 129
175 300 297 302 341 32 34 356 330 162 194 187 189 187 182 178 172 167 166 169 173 179 179 180 184 180 181 182 177 174 168 185 195 197 197 197 195 191 190 184 183 182 174 170 169 153 142 145 152
230 217 244 275 342 20 57 355 339 324 321 183 188 183 181 187 187 181 174 176 172 178 183 185 185 183 182 174 154 138 125 128 162 192 203 204 198 197 195 190 184 184 178 184 186 174 164 168 176
256 230 213 247 24 330 38 282 291 285 283 241 218 196 192 190 183 178 177 178 180 183 180 178 178 181 178 170 171 170 180 189 198 193 195 197 198 200 200 194 189 188 185 187 192 185 177 162 178
215 172 149 147 143 32 19 133 284 305 258 247 227 210 195 189 179 181 184 181 179 174 174 172 169 177 177 177 182 182 189 193 184 172 179 194 200 205 201 195 191 192 193 192 190 180 183 179 176
163 70 53 48 73 39 289 174 276 243 229 243 226 209 190 181 175 174 167 155 160 160 165 168 172 178 178 182 187 191 190 184 179 182 187 196 202 207 203 196 193 194 195 194 194 190 186 189 181
110 91 34 8 18 257 294 222 251 256 240 230 226 208 180 173 164 160 158 160 163 167 170 170 174 181 182 186 194 199 195 189 195 195 194 196 201 206 208 201 194 194 199 196 187 186 195 193 190
164 140 155 185 212 271 320 243 260 272 277 245 209 184 165 166 162 163 168 171 175 174 172 172 178 184 184 189 196 198 195 195 202 199 194 199 206 208 200 196 193 192 194 196 186 193 203 200 205
137 165 153 128 145 21 291 292 304 306 338 71 152 162 173 171 165 166 166 173 176 173 175 178 177 181 185 187 186 190 192 192 196 199 198 200 202 202 190 193 193 195 197 195 188 200 204 196 205
140 140 108 124 144 219 290 286 258 268 255 218 184 183 180 165 162 160 163 170 171 164 160 162 167 174 177 176 183 192 194 196 190 184 192 193 196 192 180 189 190 195 199 199 196 204 202 198 208
112 106 108 112 142 152 223 269 231 230 222 211 210 197 178 170 166 162 162 161 151 140 143 151 156 153 156 165 166 168 176 179 173 186 193 191 192 187 185 187 190 197 202 201 199 205 198 201 213
162 163 147 150 190 169 170 260 266 237 221 204 203 189 168 160 153 151 152 146 144 147 149 155 159 152 154 153 145 152 150 148 162 188 190 179 183 185 186 184 192 200 203 199 198 205 203 205 215
Height
1496 1495 1495 1497 1501 1513 1516 1508 1502 1501 1502 1502 1504 1505 1508 1513 1516 1522 1519 1521 1525 1528 1532 1535 1537 1538 1540 1541 1542 1543 1544 1545 1546 1547 1548 1549 1550 1550 1551 1552 1553 1553 1554 1555 1556 1557 1558 1559 1560
1496 1496 1498 1499 1510 1527 1521 1508 1505 1503 1503 1504 1505 1507 1509 1512 1514 1515 1518 1523 1527 1530 1533 1536 1538 1540 1542 1543 1544 1545 1546 1547 1548 1549 1550 1551 1552 1553 1553 1554 1555 1556 1557 1558 1559 1560 1561 1561 1562
1497 1497 1499 1503 1516 1524 1518 1507 1505 1504 1505 1505 1507 1509 1511 1514 1515 1517 1520 1524 1528 1532 1535 1538 1540 1542 1543 1545 1546 1548 1549 1550 1551 1552 1553 1554 1554 1555 1556 1557 1558 1558 1559 1560 1561 1562 1563 1564 1565
1498 1500 1501 1510 1516 1513 1509 1506 1505 1506 1506 1507 1508 1511 1514 1517 1518 1519 1522 1526 1530 1533 1536 1539 1541 1543 1545 1547 1548 1550 1551 1552 1553 1554 1555 1556 1557 1558 1558 1559 1560 1561 1562 1563 1564 1565 1566 1567 1568
1499 1500 1509 1519 1515 1509 1505 1504 1506 1506 1508 1509 1509 1513 1517 1519 1520 1522 1524 1528 1531 1534 1538 1540 1543 1545 1547 1549 1550 1552 1553 1554 1555 1556 1557 1558 1559 1560 1561 1561 1562 1563 1564 1565 1567 1568 1569 1570 1571
1500 1502 1520 1525 1516 1508 1505 1505 1506 1507 1509 1511 1511 1514 1518 1520 1522 1524 1527 1530 1533 1536 1539 1541 1544 1546 1548 1550 1552 1553 1555 1556 1557 1558 1559 1560 1561 1562 1563 1564 1565 1566 1567 1568 1569 1570 1571 1572 1573
1502 1509 1519 1519 1517 1511 1506 1505 1507 1508 1510 1512 1512 1515 1519 1521 1524 1526 1529 1532 1535 1538 1540 1543 1545 1547 1550 1552 1553 1555 1556 1557 1559 1560 1561 1562 1563 1564 1565 1566 1567 1568 1569 1570 1571 1573 1574 1575 1576
1503 1509 1517 1519 1517 1512 1505 1506 1507 1508 1511 1512 1513 1514 1517 1520 1523 1527 1530 1533 1536 1539 1541 1544 1546 1548 1550 1553 1555 1556 1558 1559 1560 1561 1563 1564 1565 1566 1567 1568 1569 1570 1571 1573 1574 1575 1576 1577 1578
1504 1515 1522 1516 1514 1509 1505 1506 1508 1509 1510 1512 1513 1514 1515 1519 1522 1526 1530 1533 1536 1538 1541 1544 1547 1549 1551 1553 1556 1557 1559 1561 1562 1563 1564 1565 1566 1568 1569 1570 1571 1573 1574 1575 1576 1577 1578 1579 1580
1505 1518 1513 1507 1506 1505 1505 1505 1506 1509 1511 1512 1513 1514 1516 1519 1522 1525 1528 1531 1534 1537 1541 1544 1547 1549 1552 1554 1556 1558 1560 1561 1563 1564 1565 1567 1568 1569 1571 1572 1573 1574 1575 1576 1577 1579 1580 1581 1582
1505 1510 1505 1503 1502 1503 1504 1505 1506 1507 1510 1509 1510 1512 1515 1518 1522 1525 1527 1530 1533 1537 1540 1544 1547 1549 1552 1554 1556 1558 1560 1562 1564 1565 1567 1568 1569 1571 1572 1573 1574 1576 1577 1578 1579 1580 1582 1583 1584
1506 1504 1503 1501 1501 1502 1503 1504 1506 1506 1505 1506 1509 1511 1513 1517 1520 1523 1527 1530 1533 1537 1540 1543 1546 1549 1552 1554 1556 1559 1561 1562 1564 1566 1567 1569 1571 1572 1573 1575 1576 1577 1578 1580 1581 1582 1583 1584 1585
1505 1504 1501 1499 1499 1500 1502 1503 1504 1504 1505 1506 1509 1512 1514 1517 1520 1524 1528 1531 1534 1537 1540 1543 1546 1549 1552 1554 1556 1559 1561 1563 1565 1567 1568 1570 1571 1573 1574 1576 1577 1578 1580 1581 1582 1583 1584 1585 1586
1505 1503 1500 1498 1498 1499 1501 1502 1504 1503 1504 1507 1509 1511 1514 1517 1520 1524 1527 1530 1534 1537 1540 1543 1546 1549 1551 1553 1556 1559 1561 1563 1565 1567 1569 1570 1572 1574 1575 1577 1578 1579 1581 1582 1583 1584 1585 1586 1587
1504 1504 1501 1499 1499 1500 1501 1506 1503 1502 1504 1506 1509 1512 1515 1517 1520 1523 1526 1529 1533 1537 1540 1543 1546 1548 1551 1553 1556 1559 1561 1563 1565 1567 1569 1571 1572 1574 1576 1577 1578 1580 1581 1582 1584 1585 1586 1587 1588
1505 1510 1514 1504 1500 1500 1505 1512 1501 1502 1503 1506 1509 1513 1515 1518 1520 1523 1527 1530 1533 1536 1539 1542 1545 1547 1550 1553 1555 1558 1561 1563 1565 1567 1569 1571 1572 1574 1576 1577 1579 1580 1581 1583 1584 1585 1586 1587 1588
1518 1523 1520 1511 1502 1501 1504 1508 1501 1502 1503 1506 1509 1512 1515 1518 1521 1523 1526 1529 1532 1535 1538 1541 1544 1546 1549 1552 1554 1557 1560 1562 1564 1566 1568 1570 1572 1574 1575 1577 1578 1580 1581 1582 1584 1584 1586 1587 1588
1524 1523 1521 1517 1505 1503 1506 1506 1502 1503 1504 1507 1509 1512 1515 1517 1519 1522 1525 1528 1531 1534 1536 1539 1542 1545 1547 1550 1553 1555 1558 1560 1563 1565 1567 1569 1571 1573 1575 1576 1578 1579 1580 1582 1583 1584 1585 1586 1587
1516 1519 1523 1515 1504 1505 1507 1507 1504 1504 1506 1508 1509 1511 1514 1516 1518 1521 1524 1526 1529 1531 1534 1536 1539 1542 1545 1548 1550 1552 1555 1558 1560 1563 1565 1568 1570 1572 1573 1575 1577 1578 1580 1581 1582 1583 1584 1586 1587
1515 1520 1520 1512 1504 1506 1509 1509 1506 1505 1505 1506 1508 1510 1513 1515 1517 1519 1522 1524 1526 1529 1531 1534 1537 1540 1543 1545 1548 1551 1554 1556 1558 1561 1563 1565 1568 1570 1572 1573 1575 1577 1578 1580 1581 1582 1583 1585 1586
1515 1518 1517 1515 1510 1508 1510 1516 1511 1507 1506 1507 1507 1509 1511 1512 1514 1517 1519 1522 1525 1527 1530 1532 1534 1537 1541 1544 1546 1549 1552 1554 1556 1558 1561 1563 1565 1568 1569 1571 1573 1575 1576 1578 1579 1581 1582 1583 1585
1518 1509 1510 1512 1519 1525 1519 1532 1517 1511 1508 1506 1505 1506 1508 1510 1513 1515 1518 1521 1523 1526 1528 1531 1533 1536 1538 1541 1543 1546 1548 1550 1553 1555 1558 1561 1563 1565 1567 1569 1571 1573 1574 1576 1577 1579 1580 1582 1583
1508 1504 1508 1511 1518 1527 1524 1532 1526 1513 1511 1505 1503 1504 1506 1508 1511 1514 1516 1519 1522 1525 1527 1530 1532 1534 1537 1539 1542 1544 1546 1549 1551 1553 1556 1558 1560 1562 1564 1566 1568 1570 1572 1573 1575 1577 1578 1579 1581
1501 1508 1514 1523 1529 1540 1528 1532 1529 1517 1508 1502 1500 1501 1504 1507 1509 1512 1516 1518 1521 1524 1527 1529 1531 1533 1535 1538 1540 1542 1544 1546 1548 1551 1553 1555 1557 1559 1561 1563 1565 1567 1569 1570 1572 1574 1575 1577 1578
1504 1522 1541 1542 1551 1546 1531 1531 1527 1505 1499 1498 1497 1499 1502 1505 1507 1511 1514 1517 1520 1523 1525 1527 1529 1532 1534 1536 1538 1540 1542 1544 1546 1548 1550 1552 1554 1556 1558 1560 1562 1564 1566 1568 1570 1571 1573 1574 1575
1506 1516 1540 1550 1553 1546 1532 1532 1515 1499 1496 1494 1494 1497 1500 1503 1506 1510 1513 1516 1519 1522 1524 1526 1528 1531 1533 1535 1537 1539 1541 1542 1544 1546 1547 1549 1551 1553 1555 1556 1558 1561 1563 1565 1566 1568 1569 1571 1572
1507 1514 1515 1537 1542 1545 1539 1526 1509 1497 1495 1494 1494 1496 1498 1501 1505 1509 1512 1515 1518 1521 1523 1526 1528 1530 1532 1533 1535 1537 1539 1540 1541 1543 1545 1546 1548 1550 1552 1553 1556 1558 1560 1561 1563 1565 1566 1567 1568
1496 1507 1523 1536 1550 1551 1538 1531 1522 1503 1498 1495 1495 1495 1497 1501 1505 1508 1512 1515 1518 1520 1523 1525 1527 1529 1531 1533 1534 1536 1537 1538 1539 1541 1542 1544 1546 1548 1549 1551 1553 1555 1557 1559 1560 1561 1563 1564 1565
1502 1509 1519 1532 1535 1549 1548 1534 1502 1497 1494 1494 1493 1494 1496 1500 1504 1508 1512 1515 1518 1520 1523 1525 1527 1529 1530 1532 1533 1534 1535 1537 1538 1539 1540 1542 1544 1545 1547 1549 1550 1552 1554 1556 1557 1558 1559 1560 1561
1490 1500 1512 1525 1533 1538 1540 1529 1491 1491 1490 1491 1492 1494 1497 1500 1504 1507 1511 1514 1517 1519 1522 1524 1526 1528 1530 1531 1532 1533 1534 1535 1536 1537 1539 1540 1542 1543 1545 1546 1548 1549 1551 1552 1553 1554 1556 1557 1557